Burlington, IA

8:47 PM CST on December 09, 2016 (GMT -0600)
Burlington Regional

Weather History for KBRL - August, 2014

Change the Weather History Date:

Wednesday, August 27, 2014

  Actual Average Record
Temperature  
Mean Temperature 75 °F 74 °F  
Max Temperature 80 °F 84 °F 97 °F (1953)
Min Temperature 70 °F 64 °F 44 °F (1915)
Degree Days  
Heating Degree Days 0 0  
Month to date heating degree days 0 0  
Since 1 June heating degree days 9 14  
Since 1 July heating degree days 7 1  
Cooling Degree Days 10 9  
Month to date cooling degree days 233 280  
Year to date cooling degree days 808 1009  
Since 1 June cooling degree days 670 906  
Growing Degree Days 24 (Base 50)    
Moisture  
Dew Point 68 °F    
Average Humidity 85    
Maximum Humidity 93    
Minimum Humidity 76    
Precipitation  
Precipitation 0.05 in 0.14 in 1.45 in (2004)
Month to date precipitation 4.38 3.69  
Year to date precipitation 27.24 26.67  
Sea Level Pressure  
Sea Level Pressure 30.10 in    
Wind  
Wind Speed 6 mph (NE)    
Max Wind Speed 12 mph    
Max Gust Speed 13 mph    
Visibility 10 miles    
Events Rain , Thunderstorm    
T = Trace of Precipitation, MM = Missing Value Source: NWS Daily Summary

Daily Weather History Graph

Daily Weather History Graph

Search for Another Location

Airport or City:

Trip Planner

Search our weather history database for the weather conditions in past years. The results will help you decide how hot, cold, wet, or windy it might be!

Date:

Astronomy

Aug. 27, 2014 Rise Set
Actual Time 6:26 AM CDT 7:44 PM CDT
Civil Twilight 5:58 AM CDT 8:13 PM CDT
Nautical Twilight 5:23 AM CDT 8:47 PM CDT
Astronomical Twilight 4:47 AM CDT 9:22 PM CDT
Moon 8:23 AM CDT (8/27) 8:35 PM CDT (8/27)
Length of Visible Light 14h 15m
Length of Day
13h 18m
Waxing Crescent, 4% of the Moon is Illuminated
Aug 27
Waxing Crescent
Sep 2
First Quarter
Sep 8
Full
Sep 15
Last Quarter
Sep 24
New

Hourly Weather History & Observations

Time (CDT) Temp. Dew Point Humidity Pressure Visibility Wind Dir Wind Speed Gust Speed Precip Events Conditions
12:53 AM 71.1 °F 68.0 °F 90% 30.10 in 10.0 mi NNW 5.8 mph - N/A   Partly Cloudy
1:53 AM 71.1 °F 68.0 °F 90% 30.10 in 10.0 mi North 4.6 mph - N/A   Mostly Cloudy
2:21 AM 71.1 °F 69.1 °F 93% 30.11 in 10.0 mi NNE 3.5 mph - 0.05 in Rain , Thunderstorm Light Rain
2:36 AM 72.0 °F 69.1 °F 91% 30.11 in 10.0 mi NNE 5.8 mph - 0.05 in Rain Light Rain
2:53 AM 71.1 °F 69.1 °F 93% 30.10 in 10.0 mi NNE 8.1 mph - 0.05 in   Overcast
3:53 AM 71.1 °F 68.0 °F 90% 30.09 in 10.0 mi NE 6.9 mph - N/A   Partly Cloudy
4:53 AM 70.0 °F 66.9 °F 90% 30.09 in 10.0 mi NE 4.6 mph - N/A   Clear
5:53 AM 70.0 °F 66.9 °F 90% 30.09 in 10.0 mi NNE 9.2 mph - N/A   Mostly Cloudy
6:53 AM 70.0 °F 66.0 °F 87% 30.10 in 10.0 mi NE 8.1 mph - N/A   Partly Cloudy
7:53 AM 71.1 °F 66.0 °F 84% 30.12 in 10.0 mi NE 6.9 mph - N/A   Partly Cloudy
8:53 AM 73.4 °F 66.2 °F 78% 30.14 in 10.0 mi ENE 5.8 mph - N/A   Partly Cloudy
9:53 AM 73.9 °F 68.0 °F 82% 30.12 in 10.0 mi ENE 4.6 mph - N/A   Clear
10:53 AM 75.9 °F 68.0 °F 76% 30.13 in 10.0 mi ENE 5.8 mph - N/A   Partly Cloudy
11:53 AM 77.0 °F 70.0 °F 79% 30.16 in 10.0 mi NW 4.6 mph - N/A   Partly Cloudy
12:53 PM 75.9 °F 69.1 °F 79% 30.14 in 10.0 mi North 9.2 mph - N/A   Partly Cloudy
1:53 PM 75.2 °F 69.8 °F 83% 30.15 in 10.0 mi NE 5.8 mph - N/A Rain Light Rain
2:53 PM 77.0 °F 70.0 °F 79% 30.11 in 10.0 mi NE 5.8 mph - 0.00 in   Mostly Cloudy
3:53 PM 78.8 °F 69.8 °F 74% 30.10 in 10.0 mi NNE 6.9 mph - N/A Rain Light Rain
4:53 PM 78.1 °F 69.1 °F 74% 30.07 in 10.0 mi ENE 4.6 mph - 0.00 in   Clear
5:53 PM 79.0 °F 69.1 °F 72% 30.06 in 10.0 mi ENE 3.5 mph - 0.00 in Rain Light Rain
6:53 PM 77.0 °F 70.0 °F 79% 30.06 in 10.0 mi NE 6.9 mph - 0.00 in   Clear
7:53 PM 75.0 °F 70.0 °F 84% 30.06 in 10.0 mi ENE 6.9 mph - N/A   Clear
8:53 PM 73.0 °F 69.1 °F 87% 30.08 in 10.0 mi NE 6.9 mph - N/A   Partly Cloudy
9:53 PM 73.0 °F 69.1 °F 87% 30.08 in 10.0 mi NNE 5.8 mph - N/A   Partly Cloudy
10:53 PM 72.0 °F 66.9 °F 84% 30.08 in 10.0 mi NE 8.1 mph - N/A   Mostly Cloudy
11:53 PM 71.1 °F 66.0 °F 84% 30.08 in 10.0 mi ENE 6.9 mph - N/A   Clear